{"data":{"norad_id":69097,"intl_designator":"2026-106A","name":"2026-106A","alt_names":[],"object_type":"PAYLOAD","status":"ACTIVE","operator":null,"country":"PRC","launch_date":"2026-05-15","launch_site_code":"JSC","launch_vehicle":null,"mission":null,"orbit_class":"UNKNOWN","rcs_meters":null,"size_class":null,"mass_kg":null,"dimensions":null,"purposes":[],"wikipedia_slug":null,"has_3d_model":false,"image_url":null,"decayed_at":null,"tle_current":{"epoch":"2026-05-15T21:29:31.389216Z","epoch_age_seconds":864825,"freshness":"AGED","line1":"1 69097U 26106A   26135.89550219  .00000498  00000+0  33805-4 0  9995","line2":"2 69097  97.5094 218.5703 0012926 275.6985  84.2771 15.10801700   119","mean_motion":15.108017,"eccentricity":0.0012926,"inclination_deg":97.5094,"raan_deg":218.5703,"arg_perigee_deg":275.6985,"mean_anomaly_deg":84.2771,"bstar":3.3805e-5,"rev_number":11,"period_min":95.313633814418,"perigee_km":524.81943587581,"apogee_km":542.68805583199,"semimajor_km":6911.8907458539,"source":"CELESTRAK","updated_at":"2026-05-25T13:38:09.293548Z"}}}